Torna al catalogo

COSMOS 1275 DEB

AttivoPO
NORAD 42134·DEBRIS·🇷🇺 Russia

Lanciato Jun 4, 1981 da Plesetsk Cosmodrome

Loading…

Prossimi Passaggi (prossime 24 ore)

TLE

AggiornatoSource: Space-Track

Epoca: Sep 13, 2026, 10:26 UTC

1 42134U 81053QW  26256.43491966  .00000341  00000-0  41823-3 0  9993
2 42134  83.0084 155.4855 0178559 359.2240   0.8601 13.56540614587495

Traccia COSMOS 1275 DEB in tempo reale con AllMySat

Download on the App Store